CS7ATL-11 Weather Reports


time (UTC)temp
F
wind
direction
speed
knots
gust
knots
rain 1hr
in
rain 24hr
in
rain mn
in
humidity
%
barometer
mb
20260508143000 64 128 6.1 12.2 0.00 0.02 0.02 100 996.6
20260508142500 64 83 3.5 10.4 0.00 0.02 0.02 100 996.6
20260508141002 64 286 5.2 14.8 0.00 0.02 0.02 100 996.7
20260508140459 64 106 8.7 11.3 0.00 0.02 0.02 100 996.8
20260508140000 64 155 1.7 10.4 0.00 0.02 0.02 100 997.0
20260508135500 65 189 0.9 8.7 0.00 0.02 0.02 100 997.1
20260508135002 65 175 0.0 11.3 0.00 0.02 0.02 100 997.0
20260508134459 64 184 3.5 13.0 0.00 0.02 0.02 100 997.1
20260508134000 64 124 2.6 13.0 0.00 0.02 0.02 100 997.2
20260508133500 64 188 2.6 10.4 0.00 0.02 0.02 100 997.3
20260508133002 64 130 8.7 9.6 0.00 0.02 0.02 100 997.3
20260508132500 65 136 7.8 9.6 0.00 0.02 0.02 100 997.3
20260508132000 65 144 3.5 12.2 0.00 0.02 0.02 100 997.4
20260508131500 65 167 3.5 12.2 0.00 0.02 0.02 100 997.2
20260508131000 65 90 6.1 12.2 0.00 0.02 0.02 100 997.3
20260508130002 65 132 6.1 13.0 0.00 0.02 0.02 100 997.2
20260508125500 65 128 6.1 13.0 0.00 0.02 0.02 100 997.3
20260508123500 65 130 1.7 10.4 0.00 0.02 0.02 100 997.6
20260508122500 65 144 7.0 10.4 0.00 0.02 0.02 100 997.7
20260508122002 64 180 10.4 14.8 0.00 0.02 0.02 100 997.7
20260508121500 64 134 6.1 14.8 0.00 0.02 0.02 100 997.8
20260508120959 64 162 4.3 8.7 0.00 0.02 0.02 100 997.9
20260508120500 64 132 3.5 13.9 0.00 0.02 0.02 100 998.1
20260508120002 64 105 6.1 13.9 0.00 0.02 0.02 100 998.1
20260508115500 65 187 5.2 13.0 0.00 0.02 0.02 100 998.1
20260508115000 64 179 4.3 14.8 0.00 0.02 0.02 100 998.2
20260508114503 64 134 6.1 14.8 0.00 0.02 0.02 100 998.2
20260508113459 64 112 6.1 12.2 0.00 0.02 0.02 100 998.5
20260508112503 65 143 7.0 9.6 0.00 0.02 0.02 100 998.3
20260508112002 65 142 2.6 10.4 0.00 0.02 0.02 100 998.2
20260508111500 64 123 3.5 10.4 0.00 0.02 0.02 100 998.4
20260508111000 64 126 7.0 10.4 0.00 0.02 0.02 100 998.2
20260508110502 64 171 10.4 10.4 0.00 0.02 0.02 100 998.2
20260508110000 63 167 9.6 9.6 0.00 0.02 0.02 100 998.3
20260508105003 63 205 1.7 13.0 0.00 0.02 0.02 100 998.4
20260508104000 64 165 1.7 12.2 0.00 0.02 0.02 100 998.5
20260508103000 63 93 1.7 11.3 0.00 0.02 0.02 100 998.5
20260508102500 63 181 7.0 12.2 0.00 0.02 0.02 100 998.6
20260508102000 64 72 2.6 10.4 0.00 0.02 0.02 100 998.4
20260508100959 64 169 0.9 7.8 0.00 0.02 0.02 100 998.4
20260508100500 63 183 3.5 8.7 0.00 0.02 0.02 100 998.5
20260508100002 63 133 6.1 11.3 0.00 0.02 0.02 100 998.5
20260508095459 63 139 9.6 11.3 0.00 0.02 0.02 100 998.6
20260508095002 63 153 0.0 9.6 0.00 0.02 0.02 100 998.4
20260508094500 63 168 5.2 10.4 0.00 0.02 0.02 100 998.5
20260508094003 63 163 7.0 8.7 0.00 0.02 0.02 100 998.4
20260508093500 63 190 4.3 8.7 0.00 0.02 0.02 100 998.4
20260508092959 62 137 3.5 8.7 0.00 0.02 0.02 100 998.3
20260508092500 62 91 3.5 9.6 0.00 0.02 0.02 100 998.5
20260508092002 63 164 4.3 9.6 0.00 0.02 0.02 100 998.4
20260508091500 62 152 0.0 7.0 0.00 0.02 0.02 100 998.5
20260508091003 62 74 0.0 7.0 0.00 0.02 0.02 100 998.4
20260508090500 62 155 2.6 5.2 0.00 0.02 0.02 100 998.5
20260508090002 62 115 1.7 5.2 0.00 0.02 0.02 100 998.6
20260508085500 62 136 2.6 7.8 0.00 0.02 0.02 100 998.6
20260508085000 62 134 2.6 7.8 0.00 0.02 0.02 100 998.6
20260508084500 61 177 0.9 7.0 0.00 0.02 0.02 100 998.6
20260508084000 61 148 3.5 7.0 0.00 0.02 0.02 100 998.5
20260508083500 61 165 0.9 7.0 0.00 0.02 0.02 100 998.6
20260508082959 61 177 3.5 6.1 0.00 0.02 0.02 100 998.6
20260508082459 61 148 0.9 5.2 0.00 0.02 0.02 100 998.6
20260508082002 61 99 2.6 6.1 0.00 0.02 0.02 100 998.8
20260508080959 61 128 1.7 7.0 0.00 0.02 0.02 100 998.7
20260508080459 61 205 0.0 5.2 0.00 0.02 0.02 100 998.5
20260508080002 60 129 0.0 3.5 0.00 0.02 0.02 100 998.6
20260508075500 60 143 0.9 3.5 0.00 0.02 0.02 100 998.5
20260508075000 59 199 0.0 3.5 0.00 0.02 0.02 100 998.6
20260508074459 58 142 1.7 4.3 0.00 0.02 0.02 100 998.5
20260508073959 58 188 0.0 5.2 0.00 0.02 0.02 100 998.7
20260508073500 58 153 1.7 3.5 0.00 0.02 0.02 100 998.6
20260508073000 58 174 1.7 2.6 0.00 0.02 0.02 100 998.6
20260508072500 58 150 2.6 3.5 0.00 0.02 0.02 100 998.5
20260508072000 57 142 0.0 3.5 0.00 0.02 0.02 100 998.5
20260508071503 57 125 1.7 2.6 0.00 0.02 0.02 100 998.6
20260508070959 57 134 0.0 1.7 0.00 0.02 0.02 100 998.5
20260508070459 57 134 0.9 2.6 0.00 0.02 0.02 100 998.6
20260508065503 56 157 0.0 2.6 0.00 0.02 0.02 100 998.5
20260508064959 56 138 0.9 2.6 0.00 0.02 0.02 100 998.5
20260508064459 56 142 0.9 2.6 0.00 0.02 0.02 100 998.4
20260508063959 55 152 0.0 2.6 0.00 0.02 0.02 100 998.4
20260508063001 55 142 0.0 2.6 0.00 0.02 0.02 100 998.5
20260508062500 55 167 0.0 3.5 0.00 0.02 0.02 100 998.4
20260508061459 55 140 1.7 3.5 0.00 0.02 0.02 100 998.4
20260508060959 55 270 0.0 0.9 0.00 0.02 0.02 100 998.3
20260508060500 55 270 0.0 0.0 0.00 0.02 0.02 100 998.4
20260508055000 55 270 0.0 0.0 0.00 0.02 0.02 100 998.1
20260508053500 54 270 0.0 0.0 0.00 0.02 0.02 100 998.1
20260508052503 54 270 0.0 0.0 0.00 0.02 0.02 100 997.9
20260508051001 54 270 0.0 0.0 0.01 0.02 0.02 100 997.8
20260508050459 54 270 0.0 0.0 0.01 0.02 0.02 100 997.7
20260508045959 54 270 0.0 0.0 0.01 0.02 0.02 100 997.5
20260508045459 54 270 0.0 0.0 0.01 0.02 0.02 100 997.6
20260508044959 54 270 0.0 0.0 0.01 0.02 0.02 100 997.6
20260508044458 54 270 0.0 0.0 0.01 0.02 0.02 100 997.5
20260508043959 54 270 0.0 0.0 0.01 0.02 0.02 100 997.5
20260508043459 55 270 0.0 0.9 0.01 0.02 0.02 100 997.5
20260508042459 55 264 1.7 2.6 0.02 0.02 0.02 100 997.5
20260508041959 55 241 0.0 0.0 0.02 0.02 0.02 100 997.4
20260508041459 55 240 0.0 0.0 0.01 0.01 0.01 100 997.4
20260508040958 55 233 0.0 0.0 0.01 0.01 0.01 100 997.6
20260508040459 55 233 0.0 0.0 0.01 0.01 0.01 100 997.7
20260508040002 55 233 0.0 0.0 0.01 0.01 0.01 100 997.8
20260508035500 55 233 0.0 0.0 0.01 0.01 0.01 100 997.9
20260508035001 56 233 0.0 0.9 0.01 0.01 0.01 100 997.8
20260508034500 56 233 0.0 0.9 0.01 0.01 0.01 100 998.1
20260508033959 56 241 0.0 2.6 0.01 0.01 0.01 100 998.2
20260508033500 57 249 0.0 7.8 0.01 0.01 0.01 100 997.9
20260508033000 58 185 1.7 7.8 0.00 0.00 0.00 100 998.1
20260508032500 58 130 3.5 5.2 0.00 0.00 0.00 100 997.9
20260508032000 58 156 4.3 5.2 0.00 0.00 0.00 100 997.8
20260508031500 57 132 0.0 3.5 0.00 0.00 0.00 100 997.9
20260508030959 57 322 0.0 0.0 0.00 0.00 0.00 100 997.8
20260508030500 57 322 0.0 0.9 0.00 0.00 0.00 100 997.8
20260508030001 57 322 0.0 1.7 0.00 0.00 0.00 100 997.8
20260508025459 57 322 0.0 1.7 0.00 0.00 0.00 100 997.9
20260508025001 57 322 0.0 0.0 0.00 0.00 0.00 100 997.7
20260508024503 57 322 0.0 0.0 0.00 0.00 0.00 100 997.9
20260508024000 57 322 0.0 0.0 0.00 0.00 0.00 100 997.9
20260508023459 57 322 0.0 0.0 0.00 0.00 0.00 100 997.8
20260508022959 57 322 0.0 0.0 0.00 0.00 0.00 100 997.9
20260508022459 57 322 0.0 0.0 0.00 0.00 0.00 100 997.9
20260508021959 57 322 0.0 0.0 0.00 0.00 0.00 100 997.9
20260508021459 57 322 0.0 0.0 0.00 0.00 0.00 100 998.0
20260508021000 57 322 0.0 0.0 0.00 0.00 0.00 100 998.1
20260508020459 57 322 0.0 0.0 0.00 0.00 0.00 100 998.1
20260508015459 57 322 0.0 0.0 0.00 0.00 0.00 100 998.5
20260508014959 57 322 0.0 0.0 0.00 0.00 0.00 100 998.4
20260508014002 57 322 0.0 0.0 0.00 0.00 0.00 100 998.4
20260508013459 57 322 0.0 0.0 0.00 0.00 0.00 100 998.5
20260508012959 57 322 0.0 0.0 0.00 0.00 0.00 100 998.7
20260508012459 57 322 0.0 0.0 0.00 0.00 0.00 100 998.7
20260508011959 57 322 0.0 0.0 0.00 0.00 0.00 100 998.7
20260508011459 57 322 0.0 0.0 0.00 0.00 0.00 100 998.7
20260508011002 57 322 0.0 0.0 0.00 0.00 0.00 100 998.6
20260508010459 56 322 0.0 0.0 0.00 0.00 0.00 100 998.7
20260508005459 56 322 0.0 0.0 0.00 0.00 0.00 100 998.8
20260508005000 56 322 0.0 0.0 0.00 0.00 0.00 100 998.8
20260508004500 56 322 0.0 0.0 0.00 0.00 0.00 100 999.0
20260508004000 56 322 0.0 0.0 0.00 0.00 0.00 100 999.1
20260508003459 56 322 0.0 0.0 0.00 0.00 0.00 100 999.2
20260508002959 56 322 0.0 0.0 0.00 0.00 0.00 100 999.1
20260508002500 56 322 0.0 0.0 0.00 0.00 0.00 100 999.2
20260508001459 56 322 0.0 0.0 0.00 0.00 0.00 100 999.3
20260508000959 56 322 0.0 0.0 0.00 0.00 0.00 100 999.2
20260508000459 57 322 0.0 0.0 0.00 0.00 0.00 100 999.1
20260508000002 57 322 0.0 0.0 0.00 0.00 0.00 100 999.2
20260507235502 57 322 0.0 0.0 0.00 0.00 0.00 100 999.3
20260507235002 57 322 0.0 0.0 0.00 0.00 0.00 100 999.2
20260507234502 57 322 0.0 0.0 0.00 0.00 0.00 100 999.0
20260507234002 57 322 0.0 0.0 0.00 0.00 0.00 100 999.1
20260507233003 57 322 0.0 0.0 0.00 0.00 0.00 100 999.1
20260507232002 57 322 0.0 0.0 0.00 0.00 0.00 100 999.2
20260507231502 57 322 0.0 0.9 0.00 0.00 0.00 100 999.1
20260507231002 57 322 0.0 0.9 0.00 0.00 0.00 100 999.2
20260507230502 57 322 0.0 1.7 0.00 0.00 0.00 100 999.3
20260507230006 57 322 0.9 1.7 0.00 0.00 0.00 100 999.1
20260507225502 57 321 0.0 0.0 0.00 0.00 0.00 100 999.5
20260507225002 57 321 0.0 0.0 0.00 0.00 0.00 100 999.7
20260507224502 57 321 0.0 0.0 0.00 0.00 0.00 100 999.5
20260507224002 58 321 0.0 0.0 0.00 0.00 0.00 100 999.6
20260507223502 58 321 0.0 0.0 0.00 0.00 0.00 100 999.7
20260507222503 58 321 0.0 0.9 0.00 0.00 0.00 100 999.5
20260507222002 58 321 0.0 0.0 0.00 0.00 0.00 100 999.5
20260507221002 58 321 0.0 0.0 0.00 0.00 0.00 100 999.6
20260507220502 58 321 0.0 1.7 0.00 0.00 0.00 100 999.6
20260507220002 58 321 0.0 1.7 0.00 0.00 0.00 100 999.4
20260507215002 58 322 0.0 0.9 0.00 0.00 0.00 100 999.8
20260507214503 58 322 0.0 0.9 0.00 0.00 0.00 100 999.8
20260507213502 58 322 0.0 1.7 0.00 0.00 0.00 100 999.8
20260507213002 58 322 0.0 3.5 0.00 0.00 0.00 100 999.8
20260507212502 58 326 0.9 2.6 0.00 0.00 0.00 100 999.7
20260507212003 58 327 0.0 2.6 0.00 0.00 0.00 100 999.8
20260507211502 58 330 0.9 2.6 0.00 0.00 0.00 100 1000.0
20260507210502 58 324 0.0 1.7 0.00 0.00 0.00 100 1000.0
20260507210003 58 324 0.0 1.7 0.00 0.00 0.00 100 1000.0
20260507205503 58 324 0.0 3.5 0.00 0.00 0.00 100 1000.0
20260507205003 58 327 0.0 4.3 0.00 0.00 0.00 100 999.8
20260507204502 58 302 0.0 4.3 0.00 0.00 0.00 100 999.8
20260507204002 58 308 0.0 2.6 0.00 0.00 0.00 100 1000.0
20260507202003 59 304 0.0 1.7 0.00 0.00 0.00 100 999.8
20260507201503 59 307 0.0 1.7 0.00 0.00 0.00 100 999.7
20260507201002 59 324 0.0 3.5 0.00 0.00 0.00 100 999.7
20260507200502 59 311 0.0 3.5 0.00 0.00 0.00 100 999.8
20260507200002 59 288 0.0 0.9 0.00 0.00 0.00 100 999.7
20260507195503 59 284 0.0 1.7 0.00 0.00 0.00 100 999.6
20260507195002 59 284 0.0 3.5 0.00 0.00 0.00 100 999.7
20260507194503 59 240 1.7 1.7 0.00 0.00 0.00 100 999.7
20260507194002 59 235 0.0 3.5 0.00 0.00 0.00 100 999.6
20260507193503 59 228 0.0 3.5 0.00 0.00 0.00 100 999.6
20260507193002 59 286 1.7 4.3 0.00 0.00 0.00 100 999.6
20260507192503 59 308 0.0 4.3 0.00 0.00 0.00 100 999.7
20260507192003 60 310 1.7 2.6 0.00 0.00 0.00 100 999.5
20260507191502 60 315 0.0 2.6 0.00 0.00 0.00 100 999.5
20260507191002 60 265 0.9 5.2 0.00 0.00 0.00 100 999.5
20260507190503 60 295 0.9 7.0 0.00 0.00 0.00 100 999.4
20260507185502 60 270 0.0 7.8 0.00 0.00 0.00 100 999.4
20260507185003 60 346 0.0 4.3 0.00 0.00 0.00 100 999.4
20260507184502 60 209 0.0 4.3 0.00 0.00 0.00 100 999.4
20260507184003 61 248 0.0 4.3 0.00 0.00 0.00 100 999.5
20260507183503 61 334 0.0 7.0 0.00 0.00 0.00 100 999.4
20260507183003 61 279 0.9 7.0 0.00 0.00 0.00 100 999.4
20260507182502 61 281 0.0 5.2 0.00 0.00 0.00 100 999.3
20260507182004 61 166 0.0 5.2 0.00 0.00 0.00 100 999.3
20260507181502 61 306 1.7 5.2 0.00 0.00 0.00 100 999.3
20260507181003 62 290 3.5 7.8 0.00 0.00 0.00 100 999.3
20260507180003 62 207 0.0 7.0 0.00 0.00 0.00 100 999.2
20260507175503 62 270 0.0 6.1 0.00 0.00 0.00 100 999.2
20260507175003 62 290 0.9 7.8 0.00 0.00 0.00 100 999.2
20260507174503 62 266 5.2 7.8 0.00 0.00 0.00 100 999.1
20260507173502 62 268 1.7 8.7 0.00 0.00 0.00 100 998.9
20260507173003 63 257 4.3 8.7 0.00 0.00 0.00 100 999.0
20260507172502 63 170 3.5 7.8 0.00 0.00 0.00 100 999.0
20260507172002 64 248 0.0 6.1 0.00 0.00 0.00 100 999.1
20260507171502 64 295 1.7 7.8 0.00 0.00 0.00 100 999.2
20260507171003 64 327 0.9 9.6 0.00 0.00 0.00 100 998.9
20260507170503 64 217 0.0 9.6 0.00 0.00 0.00 100 998.9
20260507165502 65 355 0.9 7.8 0.00 0.00 0.00 100 998.8
20260507165003 66 146 0.0 9.6 0.00 0.00 0.00 100 998.8
20260507164503 66 277 5.2 7.8 0.00 0.00 0.00 100 998.8
20260507164002 66 314 1.7 7.8 0.00 0.00 0.00 100 998.8
20260507163502 67 280 1.7 9.6 0.00 0.00 0.00 100 998.8
20260507162503 67 254 0.0 10.4 0.00 0.00 0.00 100 998.8
20260507162002 67 263 0.0 7.8 0.00 0.00 0.00 100 998.8
20260507161502 67 322 0.9 7.8 0.00 0.00 0.00 100 998.8
20260507161003 67 311 1.7 8.7 0.00 0.00 0.00 100 998.9
20260507160004 67 305 7.8 7.8 0.00 0.00 0.00 100 998.9
20260507155502 66 249 3.5 7.0 0.00 0.00 0.00 100 999.0
20260507155000 66 295 1.7 7.8 0.00 0.00 0.00 100 999.0
20260507154502 66 321 2.6 9.6 0.00 0.00 0.00 100 998.9
20260507154000 67 281 3.5 9.6 0.00 0.00 0.00 100 999.0
20260507153500 68 184 1.7 9.6 0.00 0.00 0.00 100 999.0
20260507153002 67 227 0.0 12.2 0.00 0.00 0.00 100 999.0
20260507152459 67 285 2.6 12.2 0.00 0.00 0.00 100 999.1
20260507151500 68 203 2.6 10.4 0.00 0.00 0.00 100 999.0
20260507151000 68 292 1.7 10.4 0.00 0.00 0.00 100 999.0
20260507150500 68 221 0.9 9.6 0.00 0.00 0.00 100 999.0
20260507145504 68 277 0.9 9.6 0.00 0.00 0.00 100 999.1
20260507145002 68 311 4.3 9.6 0.00 0.00 0.00 100 999.0
20260507144002 68 199 2.6 7.0 0.00 0.00 0.00 100 999.1
20260507143503 69 242 1.7 7.8 0.00 0.00 0.00 100 999.1
20260507143002 68 275 0.0 7.8 0.00 0.00 0.00 100 999.2